East Wenatchee, WA

2:46 PM PST on February 24, 2017 (GMT -0800)
Pangborn Memorial

Weather History for KEAT - April, 2012

Change the Weather History Date:

Monday, April 16, 2012

  Actual Average Record
Temperature  
Mean Temperature 44 °F 46 °F  
Max Temperature 50 °F 57 °F 76 °F (1990)
Min Temperature 37 °F 35 °F 26 °F (2015)
Degree Days  
Heating Degree Days 21 19  
Month to date heating degree days 348 327  
Since 1 July heating degree days 6282 6335  
Cooling Degree Days 0 0  
Month to date cooling degree days 0 0  
Year to date cooling degree days 0 0  
Moisture  
Dew Point 35 °F    
Average Humidity 57    
Maximum Humidity 74    
Minimum Humidity 40    
Precipitation  
Precipitation 0.38 in 0.04 in 0.33 in (1978)
Month to date precipitation 1.01 0.72  
Year to date precipitation 8.07 5.76  
Snow  
Snow 0.00 in 0.10 in - ()
Month to date snowfall 1.4 1.6  
Since 1 July snowfall 36.3 53.3  
Snow Depth 0.00 in    
Sea Level Pressure  
Sea Level Pressure 29.97 in    
Wind  
Wind Speed 5 mph (WNW)    
Max Wind Speed 14 mph    
Max Gust Speed -    
Visibility 10 miles    
Events Rain    
T = Trace of Precipitation, MM = Missing Value Source: NWS Daily Summary

Daily Weather History Graph

Daily Weather History Graph

Search for Another Location

Airport or City:

Trip Planner

Search our weather history database for the weather conditions in past years. The results will help you decide how hot, cold, wet, or windy it might be!

Date:

Astronomy

Apr. 16, 2012 Rise Set
Actual Time 6:09 AM PDT 7:52 PM PDT
Civil Twilight 5:37 AM PDT 8:24 PM PDT
Nautical Twilight 4:57 AM PDT 9:04 PM PDT
Astronomical Twilight 4:14 AM PDT 9:48 PM PDT
Moon 3:57 AM PDT (4/16) 3:37 PM PDT (4/16)
Length of Visible Light 14h 47m
Length of Day
13h 43m
Waning Crescent, 18% of the Moon is Illuminated
Apr 16
Waning Crescent
Apr 21
New
Apr 29
First Quarter
May 5
Full
May 12
Last Quarter

Hourly Weather History & Observations

Time (PDT) Temp. Windchill Dew Point Humidity Pressure Visibility Wind Dir Wind Speed Gust Speed Precip Events Conditions
12:55 AM 52.0 °F - 28.0 °F 40% 29.99 in 10.0 mi NW 6.9 mph - N/A   Mostly Cloudy
1:55 AM 51.1 °F - 28.0 °F 41% 29.98 in 10.0 mi NW 9.2 mph - N/A   Mostly Cloudy
3:55 AM 48.0 °F - 33.1 °F 56% 29.96 in 10.0 mi NE 4.6 mph - 0.00 in Rain Light Rain
4:55 AM 46.9 °F - 35.1 °F 63% 29.95 in 10.0 mi Calm Calm - 0.00 in   Overcast
5:55 AM 48.0 °F - 36.0 °F 63% 29.94 in 10.0 mi NW 3.5 mph - N/A   Overcast
6:55 AM 48.0 °F - 36.0 °F 63% 29.94 in 10.0 mi Calm Calm - N/A   Overcast
7:55 AM 46.9 °F - 39.0 °F 74% 29.94 in 10.0 mi SE 4.6 mph - 0.00 in   Overcast
8:55 AM 48.0 °F - 37.9 °F 68% 29.95 in 10.0 mi Calm Calm - 0.00 in Rain Light Rain
9:55 AM 46.9 °F - 37.9 °F 71% 29.97 in 10.0 mi NW 6.9 mph - 0.00 in   Overcast
10:55 AM 48.9 °F - 37.9 °F 66% 29.96 in 10.0 mi NW 3.5 mph - N/A   Mostly Cloudy
11:55 AM 51.1 °F - 39.9 °F 66% 29.95 in 10.0 mi SE 5.8 mph - N/A   Scattered Clouds
12:24 PM 51.8 °F - 39.2 °F 62% 29.94 in 10.0 mi Calm Calm - N/A   Mostly Cloudy
12:55 PM 51.1 °F - 39.9 °F 66% 29.94 in 10.0 mi Calm Calm - N/A   Mostly Cloudy
1:08 PM 51.8 °F - 41.0 °F 67% 29.94 in 10.0 mi Calm Calm - N/A   Partly Cloudy
1:55 PM 51.1 °F - 39.0 °F 63% 29.95 in 10.0 mi WNW 4.6 mph - N/A   Clear
2:55 PM 52.0 °F - 39.0 °F 61% 29.96 in 10.0 mi SW 3.5 mph - N/A   Clear
3:55 PM 53.1 °F - 39.0 °F 59% 29.97 in 10.0 mi West 4.6 mph - N/A   Partly Cloudy
4:55 PM 55.0 °F - 39.0 °F 55% 29.97 in 10.0 mi WNW 5.8 mph - N/A   Scattered Clouds
5:55 PM 55.0 °F - 39.0 °F 55% 29.98 in 10.0 mi West 5.8 mph - N/A   Clear
6:55 PM 55.0 °F - 30.9 °F 40% 29.96 in 10.0 mi West 11.5 mph - N/A   Clear
7:55 PM 54.0 °F - 30.0 °F 40% 29.99 in 10.0 mi WNW 13.8 mph - N/A   Clear
8:55 PM 52.0 °F - 32.0 °F 47% 30.01 in 10.0 mi WNW 11.5 mph - N/A   Clear
9:55 PM 50.0 °F - 30.0 °F 46% 30.04 in 10.0 mi NW 10.4 mph - N/A   Clear
10:55 PM 48.0 °F - 28.9 °F 48% 30.06 in 10.0 mi NW 10.4 mph - N/A   Clear
11:55 PM 46.0 °F 41.9 °F 28.0 °F 50% 30.06 in 10.0 mi WNW 8.1 mph - N/A   Clear